Kalaeloa, HI

4:40 PM HST on August 16, 2017 (GMT -1000)
Kalaeloa (John Rodgers Field)

Weather History for PHJR - August, 2013

Change the Weather History Date:

Friday, August 16, 2013

  Actual Average (PHHI) Record (PHHI)
Temperature  
Mean Temperature 80 °F -  
Max Temperature 89 °F 81 °F 86 °F (2002)
Min Temperature 72 °F 68 °F 65 °F (2011)
Cooling Degree Days 16    
Growing Degree Days 30 (Base 50)    
Moisture  
Dew Point 66 °F    
Average Humidity 65    
Maximum Humidity 84    
Minimum Humidity 45    
Precipitation  
Precipitation 0.00 in - - ()
Sea Level Pressure  
Sea Level Pressure 30.04 in    
Wind  
Wind Speed 6 mph (ENE)    
Max Wind Speed 12 mph    
Max Gust Speed 22 mph    
Visibility 10 miles    
Events      
Averages and records for this station are not official NWS values.
T = Trace of Precipitation, MM = Missing Value Source: NWS Daily Summary

Daily Weather History Graph

Daily Weather History Graph

Search for Another Location

Airport or City:

Trip Planner

Search our weather history database for the weather conditions in past years. The results will help you decide how hot, cold, wet, or windy it might be!

Date:

Astronomy

Aug. 16, 2013 Rise Set
Actual Time 6:11 AM HST 7:01 PM HST
Civil Twilight 5:48 AM HST 7:24 PM HST
Nautical Twilight 5:20 AM HST 7:51 PM HST
Astronomical Twilight 4:53 AM HST 8:19 PM HST
Moon 3:17 PM HST (8/16) 1:38 AM HST (8/16)
Length of Visible Light 13h 36m
Length of Day
12h 50m
Waxing Gibbous, 77% of the Moon is Illuminated
Aug 16
Waxing Gibbous
Aug 20
Full
Aug 27
Last Quarter
Sep 5
New
Sep 12
First Quarter

Hourly Weather History & Observations

Time (HST) Temp. Heat Index Dew Point Humidity Pressure Visibility Wind Dir Wind Speed Gust Speed Precip Events Conditions
12:53 AM 75.9 °F - 66.0 °F 71% 30.04 in 10.0 mi ENE 5.8 mph - N/A   Partly Cloudy
1:53 AM 73.0 °F - 68.0 °F 84% 30.03 in 10.0 mi ENE 4.6 mph - 0.00 in   Overcast
2:53 AM 73.0 °F - 66.0 °F 79% 30.02 in 10.0 mi East 3.5 mph - N/A   Mostly Cloudy
3:53 AM 75.0 °F - 66.9 °F 76% 30.02 in 10.0 mi East 8.1 mph - N/A   Mostly Cloudy
4:53 AM 73.0 °F - 66.9 °F 81% 30.02 in 10.0 mi ENE 3.5 mph - 0.00 in   Scattered Clouds
5:53 AM 72.0 °F - 66.9 °F 84% 30.03 in 10.0 mi ENE 3.5 mph - N/A   Partly Cloudy
6:53 AM 75.0 °F - 66.0 °F 73% 30.05 in 10.0 mi Variable 4.6 mph - N/A   Mostly Cloudy
7:53 AM 77.0 °F - 66.0 °F 69% 30.07 in 10.0 mi East 5.8 mph - N/A   Overcast
8:53 AM 81.0 °F 83.3 °F 66.9 °F 62% 30.07 in 10.0 mi Variable 5.8 mph - N/A   Mostly Cloudy
9:53 AM 84.0 °F 85.8 °F 64.9 °F 53% 30.07 in 10.0 mi Variable 6.9 mph 16.1 mph N/A   Partly Cloudy
10:53 AM 84.9 °F 86.1 °F 64.0 °F 49% 30.06 in 10.0 mi NE 10.4 mph 19.6 mph N/A   Partly Cloudy
11:53 AM 88.0 °F 89.6 °F 64.9 °F 46% 30.04 in 10.0 mi NE 8.1 mph 18.4 mph N/A   Partly Cloudy
12:53 PM 88.0 °F 89.3 °F 64.0 °F 45% 30.03 in 10.0 mi East 8.1 mph 20.7 mph N/A   Clear
1:53 PM 89.1 °F 91.3 °F 66.0 °F 46% 30.01 in 10.0 mi East 11.5 mph 19.6 mph N/A   Clear
2:53 PM 87.1 °F 89.2 °F 66.0 °F 49% 30.01 in 10.0 mi East 9.2 mph 21.9 mph N/A   Partly Cloudy
3:53 PM 84.9 °F 87.6 °F 66.9 °F 55% 30.00 in 10.0 mi NE 8.1 mph 18.4 mph N/A   Clear
4:53 PM 84.0 °F 85.8 °F 64.9 °F 53% 30.01 in 10.0 mi NE 10.4 mph 19.6 mph N/A   Clear
5:53 PM 81.0 °F 83.0 °F 66.0 °F 60% 30.02 in 10.0 mi Variable 5.8 mph 18.4 mph N/A   Clear
6:53 PM 79.0 °F - 66.0 °F 64% 30.04 in 10.0 mi ENE 10.4 mph 17.3 mph N/A   Clear
7:53 PM 77.0 °F - 66.0 °F 69% 30.06 in 10.0 mi ENE 6.9 mph - N/A   Clear
8:53 PM 75.9 °F - 64.9 °F 69% 30.07 in 10.0 mi ENE 5.8 mph - N/A   Clear
9:53 PM 75.9 °F - 64.9 °F 69% 30.08 in 10.0 mi ENE 6.9 mph - N/A   Clear
10:53 PM 75.0 °F - 64.9 °F 71% 30.09 in 10.0 mi Calm Calm - N/A   Partly Cloudy
11:29 PM 75.2 °F - 66.2 °F 73% 30.06 in 10.0 mi ENE 6.9 mph - N/A   Partly Cloudy
11:53 PM 75.9 °F - 64.0 °F 67% 30.08 in 10.0 mi ENE 6.9 mph - N/A   Clear